FW2442 Weather Reports


time (UTC)temp
C
wind
direction
speed
KPH
gust
KPH
rain 1hr
cm
rain 24hr
cm
rain mn
cm
humidity
%
barometer
mb
20260905195519 16 276 9.7 14.5 0.00 0.53 0.53 92 1015.9
20260905194521 16 277 19.3 27.4 0.00 0.53 0.53 92 1015.9
20260905193519 16 305 14.5 20.9 0.00 0.53 0.53 92 1015.8
20260905192521 16 293 19.3 33.8 0.00 0.53 0.53 91 1015.9
20260905191519 16 315 20.9 33.8 0.00 0.53 0.53 92 1015.6
20260905190521 16 306 14.5 30.6 0.00 0.53 0.53 92 1015.6
20260905185519 16 285 22.5 38.6 0.00 0.53 0.53 92 1015.9
20260905183521 16 287 22.5 32.2 0.00 0.53 0.53 94 1015.7
20260905182519 16 291 16.1 24.1 0.00 0.53 0.53 94 1015.7
20260905181539 16 304 22.5 40.2 0.03 0.53 0.53 95 1015.6
20260905180519 16 320 20.9 29.0 0.13 0.53 0.53 95 1015.5
20260905175519 16 326 27.4 37.0 0.53 0.53 0.53 95 1015.3
20260905174521 16 340 24.1 37.0 0.53 0.53 0.53 94 1015.2
20260905173519 17 326 22.5 45.1 0.53 0.53 0.53 94 1015.1
20260905172521 17 336 33.8 54.7 0.53 0.53 0.53 92 1014.8
20260905171520 17 314 45.1 69.2 0.51 0.51 0.51 91 1014.4
20260905170522 18 306 66.0 114.3 0.41 0.41 0.41 85 1014.5
20260905165540 19 325 37.0 67.6 0.00 0.00 0.00 78 1015.2
20260905164519 20 324 51.5 77.2 0.00 0.00 0.00 69 1014.7
20260905163540 21 321 27.4 53.1 0.00 0.00 0.00 61 1014.1
20260905162522 21 342 27.4 48.3 0.00 0.00 0.00 60 1013.8
20260905161520 21 355 37.0 69.2 0.00 0.00 0.00 60 1013.5
20260905160520 21 340 37.0 74.0 0.00 0.00 0.00 59 1013.6
20260905155519 21 333 49.9 70.8 0.00 0.00 0.00 58 1013.3
20260905154541 22 340 53.1 75.6 0.00 0.00 0.00 57 1013.4
20260905153519 22 329 48.3 74.0 0.00 0.00 0.00 56 1013.4
20260905152540 22 320 61.2 86.9 0.00 0.00 0.00 55 1013.3
20260905151520 22 333 45.1 61.2 0.00 0.00 0.00 56 1013.0
20260905150522 22 327 46.7 83.7 0.00 0.00 0.00 55 1012.8
20260905145520 23 324 48.3 101.4 0.00 0.00 0.00 56 1012.6
20260905144522 23 332 57.9 86.9 0.00 0.00 0.00 56 1012.3
20260905143520 23 329 54.7 78.9 0.00 0.00 0.00 59 1012.1
20260905142522 24 329 53.1 75.6 0.00 0.00 0.00 57 1012.1
20260905141520 25 326 56.3 74.0 0.00 0.00 0.00 52 1012.2
20260905140521 27 320 59.5 86.9 0.00 0.00 0.00 50 1011.7
20260905135519 28 328 54.7 86.9 0.00 0.00 0.00 49 1011.2
20260905134521 30 332 57.9 101.4 0.00 0.00 0.00 46 1011.0
20260905133520 31 293 24.1 40.2 0.00 0.00 0.00 41 1010.5
20260905132522 32 277 32.2 45.1 0.00 0.00 0.00 39 1010.3
20260905131520 32 261 32.2 45.1 0.00 0.00 0.00 38 1010.2
20260905130522 32 274 29.0 41.8 0.00 0.00 0.00 39 1010.2
20260905125520 31 259 22.5 32.2 0.00 0.00 0.00 39 1010.4
20260905124521 31 245 27.4 48.3 0.00 0.00 0.00 39 1010.5
20260905123519 32 245 40.2 57.9 0.00 0.00 0.00 38 1010.5
20260905122541 32 225 41.8 53.1 0.00 0.00 0.00 38 1010.7
20260905121519 32 223 43.5 61.2 0.00 0.00 0.00 38 1010.7
20260905120521 33 214 35.4 54.7 0.00 0.00 0.00 37 1010.9
20260905115519 32 221 32.2 45.1 0.00 0.00 0.00 39 1010.9
20260905114520 32 212 19.3 40.2 0.00 0.00 0.00 40 1011.0
20260905113516 31 214 24.1 37.0 0.00 0.00 0.00 42 1011.1
20260905112521 30 198 20.9 27.4 0.00 0.00 0.00 43 1011.2
20260905111520 31 215 27.4 41.8 0.00 0.00 0.00 42 1011.3
20260905110542 30 211 27.4 35.4 0.00 0.00 0.00 44 1011.2
20260905105519 30 208 41.8 56.3 0.00 0.00 0.00 42 1011.1
20260905104541 30 190 29.0 45.1 0.00 0.00 0.00 43 1011.2
20260905103520 30 217 37.0 49.9 0.00 0.00 0.00 43 1011.3
20260905102517 30 229 38.6 49.9 0.00 0.00 0.00 44 1011.4
20260905101520 30 220 41.8 70.8 0.00 0.00 0.00 43 1011.6
20260905100516 30 200 57.9 77.2 0.00 0.00 0.00 42 1011.5
20260905095521 30 214 43.5 61.2 0.00 0.00 0.00 42 1011.6
20260905094541 31 232 37.0 51.5 0.00 0.00 0.00 42 1011.6
20260905093519 31 219 45.1 67.6 0.00 0.00 0.00 42 1011.7
20260905092520 30 198 41.8 62.8 0.00 0.00 0.00 43 1011.7
20260905085536 30 202 46.7 72.4 0.00 0.00 0.00 45 1012.1
20260905084518 29 202 46.7 77.2 0.00 0.00 0.00 46 1012.1
20260905083537 28 198 54.7 80.5 0.00 0.00 0.00 46 1012.2
20260905082522 28 204 48.3 57.9 0.00 0.00 0.00 48 1012.3
20260905081519 28 200 45.1 61.2 0.00 0.00 0.00 48 1012.4
20260905080517 27 196 38.6 54.7 0.00 0.00 0.00 50 1012.5
20260905075520 27 206 48.3 69.2 0.00 0.00 0.00 50 1012.7
20260905074517 27 199 51.5 70.8 0.00 0.00 0.00 50 1012.7
20260905073516 26 204 51.5 66.0 0.00 0.00 0.00 51 1012.8
20260905072517 26 188 49.9 67.6 0.00 0.00 0.00 51 1012.9
20260905071537 26 204 45.1 69.2 0.00 0.00 0.00 53 1012.9
20260905070518 25 204 45.1 57.9 0.00 0.00 0.00 54 1012.9
20260905065518 25 188 43.5 59.5 0.00 0.00 0.00 55 1013.0
20260905064520 25 199 45.1 67.6 0.00 0.00 0.00 56 1013.1
20260905063516 23 197 49.9 59.5 0.00 0.00 0.00 58 1013.1
20260905062540 23 199 43.5 64.4 0.00 0.00 0.00 60 1013.0
20260905061516 23 210 41.8 53.1 0.00 0.00 0.00 61 1013.1
20260905060536 22 197 40.2 53.1 0.00 0.00 0.00 61 1013.1
20260905055537 22 201 22.5 35.4 0.00 0.00 0.00 62 1013.1
20260905054516 21 202 16.1 29.0 0.00 0.00 0.00 63 1013.2
20260905053517 21 188 19.3 27.4 0.00 0.00 0.00 64 1013.2
20260905052521 21 166 14.5 24.1 0.00 0.00 0.00 64 1013.2
20260905051517 21 161 9.7 16.1 0.00 0.00 0.00 65 1013.1
20260905050517 20 161 16.1 20.9 0.00 0.00 0.00 65 1013.1
20260905045517 20 190 17.7 27.4 0.00 0.00 0.00 65 1013.2
20260905044517 20 181 17.7 27.4 0.00 0.00 0.00 66 1013.1
20260905043517 19 180 25.7 32.2 0.00 0.00 0.00 67 1013.2
20260905042517 18 178 22.5 27.4 0.00 0.00 0.00 67 1013.1
20260905041559 18 189 14.5 19.3 0.00 0.00 0.00 69 1013.0
20260905040517 18 186 8.0 11.3 0.00 0.00 0.00 70 1012.9
20260905035519 17 167 8.0 14.5 0.00 0.00 0.00 72 1012.9
20260905034539 17 116 3.2 9.7 0.00 0.00 0.00 72 1012.8
20260905033519 17 175 11.3 14.5 0.00 0.00 0.00 72 1012.8
20260905032537 17 181 11.3 16.1 0.00 0.00 0.00 72 1012.9
20260905031516 17 208 6.4 11.3 0.00 0.00 0.00 71 1012.9
20260905030537 18 262 9.7 14.5 0.00 0.00 0.00 71 1012.9
20260905025517 17 212 12.9 17.7 0.00 0.00 0.00 72 1013.0
20260905024517 17 238 4.8 9.7 0.00 0.00 0.00 72 1013.0
20260905023557 17 245 6.4 14.5 0.00 0.00 0.00 73 1013.1
20260905022517 17 178 14.5 19.3 0.00 0.00 0.00 73 1013.0
20260905021537 17 174 11.3 17.7 0.00 0.00 0.00 74 1013.0
20260905020521 17 167 8.0 14.5 0.00 0.00 0.00 74 1013.0
20260905015519 17 167 9.7 17.7 0.00 0.00 0.00 74 1013.0
20260905014517 17 198 11.3 16.1 0.00 0.00 0.00 74 1013.0
20260905013517 17 185 17.7 24.1 0.00 0.00 0.00 76 1013.1
20260905012517 17 179 11.3 17.7 0.00 0.00 0.00 77 1013.2
20260905011518 17 179 8.0 11.3 0.00 0.00 0.00 77 1013.1
20260905010518 17 166 11.3 17.7 0.00 0.00 0.00 77 1013.2
20260905005518 18 151 9.7 22.5 0.00 0.00 0.00 76 1013.2
20260905004516 18 150 9.7 11.3 0.00 0.00 0.00 76 1013.2
20260905003537 18 172 11.3 14.5 0.00 0.00 0.00 76 1013.2
20260905002521 18 184 11.3 17.7 0.00 0.00 0.00 76 1013.3
20260905001537 18 207 4.8 8.0 0.00 0.00 0.00 77 1013.3
20260905000539 18 183 6.4 8.0 0.00 0.00 0.00 77 1013.3
20260904235517 18 199 1.6 6.4 0.00 0.00 0.00 77 1013.4
20260904234517 18 179 9.7 11.3 0.00 0.00 0.00 77 1013.3
20260904233517 18 219 9.7 14.5 0.00 0.00 0.00 76 1013.2
20260904232521 18 253 4.8 8.0 0.00 0.00 0.00 76 1013.1
20260904231517 19 201 4.8 9.7 0.00 0.00 0.00 75 1013.2
20260904230517 19 209 9.7 14.5 0.00 0.00 0.00 74 1013.4
20260904225518 19 268 4.8 9.7 0.00 0.00 0.00 74 1013.5
20260904224537 19 278 8.0 11.3 0.00 0.00 0.00 74 1013.5
20260904223517 19 239 9.7 12.9 0.00 0.00 0.00 74 1013.5
20260904222522 20 251 6.4 9.7 0.00 0.00 0.00 73 1013.5
20260904221538 20 223 14.5 17.7 0.00 0.00 0.00 71 1013.3
20260904220518 20 252 11.3 14.5 0.00 0.00 0.00 72 1013.5
20260904215518 20 250 9.7 12.9 0.00 0.00 0.00 72 1013.5
20260904214517 20 265 8.0 11.3 0.00 0.00 0.00 72 1013.6
20260904213518 20 258 9.7 12.9 0.00 0.00 0.00 72 1013.7
20260904212521 20 228 12.9 16.1 0.00 0.00 0.00 71 1013.6
20260904211518 20 227 8.0 12.9 0.00 0.00 0.00 71 1013.7
20260904210517 20 189 9.7 14.5 0.00 0.00 0.00 70 1013.6
20260904205518 21 184 8.0 11.3 0.00 0.00 0.00 69 1013.5
20260904204517 21 151 8.0 11.3 0.00 0.00 0.00 67 1013.5
20260904203517 21 172 4.8 11.3 0.00 0.00 0.00 67 1013.6
20260904202517 21 240 1.6 8.0 0.00 0.00 0.00 66 1013.6
20260904201538 21 28 0.0 4.8 0.00 0.00 0.00 66 1013.5
20260904200538 21 245 1.6 11.3 0.00 0.00 0.00 66 1013.5